Location: Unspecified
(0.0000°N, 0.0000°E)
Time: 20:33:35
(UTC+00:00)

Mayak - Visible Passes

Search period start: 16 September 2024 00:00
Search period end: 26 September 2024 00:00
Orbit: 469 x 477 km, 97.4° (Epoch: 16 September)

Date Brightness Start Highest point End Pass type
(mag) Time Alt. Az. Time Alt. Az. Time Alt. Az.
17 Sep ? 19:14:26 10° NNW 19:17:04 20° W 19:19:43 10° SW visible
18 Sep ? 18:45:31 10° N 18:48:59 62° W 18:52:29 10° SSW visible
19 Sep ? 18:17:29 10° NNE 18:20:46 37° E 18:24:03 10° S visible
20 Sep ? 19:23:16 10° NW 19:25:18 15° W 19:27:21 10° WSW visible
21 Sep ? 18:53:25 10° N 18:56:46 44° W 19:00:07 10° SSW visible
22 Sep ? 18:24:40 10° NNE 18:28:04 51° E 18:31:29 10° S visible
23 Sep ? 19:30:56 10° WNW 19:32:06 11° W 19:33:18 10° W visible
24 Sep ? 18:59:56 10° NNW 19:03:07 34° W 19:06:19 10° SW visible
25 Sep ? 18:30:30 10° NNE 18:33:58 66° E 18:37:26 10° S visible
